COSMOS 1275 DEB, 42114

Orbit data source: Space-Track

COSMOS 1275 DEB, 42114 is space debris in LEO originally from a launch on Thu, 04 Jun 1981 UTC launched from the Plesetsk Missile And Space Complex (PKMTR). Debris objects in space refer to the collection of defunct objects orbiting the Earth. Examples of debris include non-operational satellites, rocket bodies, and fragments generated from explosions, collisions, or faulty payload assembly.

Loading next visibility...
Identifier
42114, 1981-053QA
Orbit
LEO
Country
Flag of CISCIS
Related business
Manufacturer
Unknown
Mission
Spacecraft
Bus & Motor
Unknown
Mass
Unknown
Launch date (UTC)
1981-06-04 (45 years ago)
Launch vehicle
Unknown
Launch site
Plesetsk Missile And Space Complex (PKMTR)
Object type
Payload
Rocket body
Debris
Shape & HBR
Unknown shape, 0.1 m
Radar Cross Section
Small (<0.1 m²)

Expand to show TLE details & history
Last TLE update: 6 days ago

TLE from 6 days ago
0 COSMOS 1275 DEB
1 42114U 81053QA  26167.64721273  .00004184  00000-0  12823-2 0  9998
2 42114  82.8121 290.3893 0032591 296.8819 126.2861 14.41247672651032
Epoch: 2026-06-16T15:31Z
TLE epoch observation values (Epoch: 2026-06-16T15:31:59.179Z)
Latitude
62.67256°
Longitude
166.52582°
Altitude
778.963 km
Speed
7.463 km/s
True Right ascension
20h 17m 45s
True Declination
62° 31' 57"
Sunlit
Object was in daylight at epoch
Visualization orbit readout
Latitude
Unknown
Longitude
Unknown
Altitude
Unknown
Speed
Unknown
Apparent Right ascension
Unknown
Apparent Declination
Unknown
Sunlit
N/A
Visualization observer readout
Local Sidereal Time
21:54:17
Azimuth
Unknown
Elevation
Unknown
Doppler factor
Unknown
Orbital elements
Apogee altitude
774.678 km
Perigee altitude
728.206 km
Semi-major axis
7,129.579 km
Eccentricity
0.00326
Inclination
82.8121°
RAAN
290.3893°
Arg. of periapsis
296.8819°
True anomaly
126.58641°
Mean anomaly
126.2861°
Eccentric anomaly
126.43633°
Mean motion
3.60535 °/min
Orbital period
99.85 mins
BSTAR
0.0012823
Loading maneuver chart data...
Computing Atmospheric mass density...

Documentation

Showing up to 5 results
|